Flag for Germany Weather past 2 weeks in Hofheim am Taunus, Hesse, Germany

Now
84 °F

Sunny.


Feels Like: 87 °F
Forecast: 65 / 89 °F
Wind: 3 mph from Southeast

Location: Wiesbaden Airport

Current Time: Aug 29, 2015 at 5:38:09 PM

Latest Report: Aug 29, 2015 at 4:58 PM


Visibility: N/A

Pressure: 30.11 "Hg

Humidity: 56%

Dew point: 67 °F

Location of Hofheim am TaunusLocation

Historic Weather in Hofheim am Taunus — Graph

°F

Hofheim am Taunus temperature yesterday

Maximum temperature yesterday: 69 °F (at 4:58 PM)
Minimum temperature yesterday: 59 °F (at 4:58 AM)
Average temperature yesterday: 63 °F

Past Weeks' High & Low Weather Summary

 TemperatureHumidityPressure
High83 °F (Aug 14, 3:58 PM)100% (Aug 15, 3:58 AM)30.29 "Hg (Aug 15, 3:58 AM)
Low51 °F (Aug 19, 5:58 AM)24% (Aug 22, 4:58 PM)29.66 "Hg (Aug 23, 6:58 PM)
Average66 °F72%29.98 "Hg
* Reported Aug 14 3:58 PM — Aug 29 3:58 PM, Hofheim am Taunus, Weather by CustomWeather, © 2015

Note: Actual official high and low records may vary slightly from our data, if they occured in-between our weather recording intervals... More about our weather records

Advertising

Hofheim am Taunus weather history for previous 24 hours

 ConditionsComfort  
Time TempWeatherWind HumidityBarometerVisibility
3:58 PM
Sat, Aug 29
82 °FSunny.1 mph58%30.13 "HgN/A
2:58 PM81 °FSunny.2 mph62%30.15 "HgN/A
1:58 PM78 °FSunny.5 mph66%30.17 "HgN/A
12:58 PM76 °FSunny.5 mph70%30.19 "HgN/A
11:58 AM72 °FPassing clouds.3 mph74%30.21 "HgN/A
10:58 AM68 °FPartly sunny.6 mph81%30.21 "HgN/A
8:58 AM64 °FMostly cloudy.6 mph88%30.21 "HgN/A
7:58 AM61 °FMore clouds than sun.No wind100%30.21 "HgN/A
7:01 AM61 °FMostly cloudy.1 mph100%30.20 "HgN/A
5:58 AM59 °FLow clouds.3 mph100%30.20 "HgN/A
4:58 AM56 °FPassing clouds.1 mph100%30.20 "HgN/A
3:58 AM57 °FPassing clouds.No wind99%30.20 "HgN/A
2:58 AM59 °FOvercast.2 mph94%30.20 "HgN/A
1:58 AM57 °FClear.No wind100%30.20 "HgN/A
12:58 AM58 °FClear.No wind98%30.19 "HgN/A
11:58 PM
Fri, Aug 28
59 °FClear.1 mph97%30.19 "HgN/A
10:58 PM61 °FClear.2 mph94%30.18 "HgN/A
9:58 PM62 °FClear.3 mph96%30.17 "HgN/A
8:58 PM64 °FSunny.2 mph88%30.15 "HgN/A
7:58 PM68 °FScattered clouds.6 mph78%30.13 "HgN/A
6:58 PM68 °FOvercast.5 mph79%30.12 "HgN/A
5:58 PM68 °FMostly cloudy.6 mph78%30.11 "HgN/A
Weather by CustomWeather, © 2015

See weather overviewHow to use our weather pages